STARLINK-1341, 45534

Orbit data source: Space-Track

STARLINK-1341, 45534 is a payload satellite owned by SpaceX/Seattle (US) in LEO that was launched on Wed, 22 Apr 2020 UTC via an FALCON 9 launch vehicle from the Air Force Eastern Test Range (AFETR). Payloads include a variety of satellites, spacecraft, and rockets equipped with specific instruments for various scientific and technological missions. These include communications satellites like Starlink; space stations such as the ISS; scientific satellites like the Hubble; Earth observation satellites from companies like Planet Labs, Umbra, and HawkEye 360; GPS; miniature CubeSats for education and research; and military/defense satellites.

Loading next visibility...
STARLINK-1341 details
Identifier
45534, 2020-025D
Orbit
LEO
Last TLE update3 hours ago
Origin
Flag of USSpaceX/Seattle (US)
ManufacturerSpaceX/Seattle
MissionPartially operational Commercial Communications
Bus & MotorSTARLINK, Unknown motor
Mass260 kg wet, ~248 kg dry
Launch date (UTC)
2020-04-22 (5 years ago)
Launch vehicle
FALCON 9
Launch site
Air Force Eastern Test Range (AFETR)
Object type
Payload
Rocket body
Debris
Shape & HBRBox + 1 Pan, 8.86 m
Radar Cross Section13.562 m², Large (>1 m²)

Expand to show TLE details & history

TLE from 3 hours ago
0 STARLINK-1341
1 45534U 19060A   24361.58334491  .00210385  00000-0  14009-2 0  9995
2 45534  53.0477 257.8987 0003155 152.8743 245.0952 15.74254685258682
Epoch: 2024-12-26T14:00Z
Definitive object data (Epoch: 2024-12-26T14:00:01Z)
Latitude29.51876°
Longitude-22.60826°
Altitude349.258 km
Speed7.703 km/s
True Right ascension18h 51m 49s
True Declination29° 21' 45"
Sunlit
Object was in daylight at TLE epoch
Visualization TLE readout
Latitude36.29816°
Longitude98.29052°
Altitude347.435 km
Speed7.706 km/s
Apparent Right ascension03h 49m 19s
Apparent Declination0° 37' 52"
Sunlit
Object is in full shadow
Visualization observer readout
Local Sidereal Time16:49:09
Azimuth22.888° NE
Elevation-48.418°
Doppler factor1
Orbital elements
Apogee altitude349.154 km
Perigee altitude344.911 km
Semi-major axis6,725.17 km
Eccentricity0.0003155
Inclination53.0477°
RAAN257.8987°
Arg. of periapsis152.8743°
True anomaly245.06241°
Mean anomaly245.0952°
Eccentric anomaly245.07881°
Mean motion3.93539 °/min
BSTAR0.0014009
Orbital period91.48 mins
Loading maneuver chart data...
Loading historical data...
Loading historical data...
Loading historical data...
Loading historical data...
Loading historical data...
Loading historical data...
Loading historical data...

STARLINK-1341 Visibility forecast

Observer location: undefined°, undefined

Span
Click to sort rows by Start time (UTC) header in descending order
Start Az.
Max El. time (UTC)
Max El. Az.
Max El.
End time (UTC)
End Az.
5 mins2024-12-26 20:06:49.640Z220.11° SW2024-12-26 20:08:49.640Z188.839° SSW39.826°2024-12-26 20:11:49.640Z55.46° ENE
|